"Sample Date","Sample Time","Sample Value","Units","Flow Rate","Sample Interval","Number Channels","Micron Size 0","Counts/Channel 0","Micron Size 1","Counts/Channel 1","Micron Size 2","Counts/Channel 2","Micron Size 3","Counts/Channel 3","Micron Size 4","Counts/Channel 4","Micron Size 5","Counts/Channel 5","Micron Size 6","Counts/Channel 6","Micron Size 7","Counts/Channel 7","Micron Size 8","Counts/Channel 8","Micron Size 9","Counts/Channel 9","Micron Size 10","Counts/Channel 10","Micron Size 11","Counts/Channel 11","Micron Size 12","Counts/Channel 12","Micron Size 13","Counts/Channel 13","Micron Size 14","Counts/Channel 14","Micron Size 15","Counts/Channel 15","Micron Size 16","Counts/Channel 16","Micron Size 17","Counts/Channel 17","Micron Size 18","Counts/Channel 18","Micron Size 19","Counts/Channel 19","Micron Size 20","Counts/Channel 20","Micron Size 21","Counts/Channel 21","Micron Size 22","Counts/Channel 22","Micron Size 23","Counts/Channel 23","Micron Size 24","Counts/Channel 24","Micron Size 25","Counts/Channel 25","Micron Size 26","Counts/Channel 26","Micron Size 27","Counts/Channel 27","Micron Size 28","Counts/Channel 28","Micron Size 29","Counts/Channel 29","Micron Size 30","Counts/Channel 30","Micron Size 31","Counts/Channel 31"
"03/08/08","01:00:02",386502.000,"cc",28348.365,6.00,6,0.100,334270.000,0.200,50365.000,0.300,1643.000,0.500,200.000,1.000,24.000,5.000,0
"03/08/08","01:00:08",371830.000,"cc",28299.176,6.00,6,0.100,305214.000,0.200,64068.000,0.300,2296.000,0.500,221.000,1.000,31.000,5.000,0
"03/08/08","01:00:14",321598.000,"cc",28309.283,6.00,6,0.100,247520.000,0.200,71147.000,0.300,2682.000,0.500,217.000,1.000,32.000,5.000,0
"03/08/08","01:00:20",389235.000,"cc",28357.440,6.00,6,0.100,336271.000,0.200,50985.000,0.300,1810.000,0.500,145.000,1.000,24.000,5.000,0
"03/08/08","01:00:26",302086.000,"cc",28339.022,6.00,6,0.100,233378.000,0.200,66196.000,0.300,2335.000,0.500,165.000,1.000,12.000,5.000,0
"03/08/08","01:00:32",374126.000,"cc",28286.902,6.00,6,0.100,324877.000,0.200,47394.000,0.300,1671.000,0.500,149.000,1.000,35.000,5.000,0
"03/08/08","01:00:38",349542.000,"cc",28318.578,6.00,6,0.100,290213.000,0.200,57146.000,0.300,1997.000,0.500,167.000,1.000,19.000,5.000,0
"03/08/08","01:00:44",302850.000,"cc",28268.607,6.00,6,0.100,242666.000,0.200,57880.000,0.300,2108.000,0.500,176.000,1.000,20.000,5.000,0
"03/08/08","01:00:50",397749.000,"cc",28359.770,6.00,6,0.100,321379.000,0.200,73273.000,0.300,2823.000,0.500,235.000,1.000,39.000,5.000,0
"03/08/08","01:00:56",324905.000,"cc",28331.846,6.00,6,0.100,269902.000,0.200,52713.000,0.300,2082.000,0.500,184.000,1.000,24.000,5.000,0
"03/08/08","01:01:02",245874.000,"cc",28357.479,6.00,6,0.100,176131.000,0.200,66833.000,0.300,2672.000,0.500,208.000,1.000,30.000,5.000,0
"03/08/08","01:01:08",346831.000,"cc",28335.639,6.00,6,0.100,284478.000,0.200,59584.000,0.300,2489.000,0.500,244.000,1.000,36.000,5.000,0
"03/08/08","01:01:14",347632.000,"cc",28282.100,6.00,6,0.100,300335.000,0.200,45134.000,0.300,1962.000,0.500,174.000,1.000,27.000,5.000,0
"03/08/08","01:01:20",362813.000,"cc",28265.309,6.00,6,0.100,310741.000,0.200,49802.000,0.300,2118.000,0.500,136.000,1.000,16.000,5.000,0
"03/08/08","01:01:26",234414.000,"cc",28320.438,6.00,6,0.100,137048.000,0.200,92590.000,0.300,4541.000,0.500,211.000,1.000,24.000,5.000,0
"03/08/08","01:01:32",210364.000,"cc",28333.506,6.00,6,0.100,126034.000,0.200,80358.000,0.300,3785.000,0.500,174.000,1.000,13.000,5.000,0
"03/08/08","01:01:38",349334.000,"cc",28389.713,6.00,6,0.100,258948.000,0.200,86101.000,0.300,4058.000,0.500,204.000,1.000,23.000,5.000,0
"03/08/08","01:01:44",325479.000,"cc",28356.801,6.00,6,0.100,265657.000,0.200,57264.000,0.300,2393.000,0.500,150.000,1.000,15.000,5.000,0
"03/08/08","01:01:50",244815.000,"cc",28295.727,6.00,6,0.100,201382.000,0.200,41636.000,0.300,1672.000,0.500,114.000,1.000,11.000,5.000,0
"03/08/08","01:01:56",240701.000,"cc",28278.471,6.00,6,0.100,211552.000,0.200,27964.000,0.300,1114.000,0.500,62.000,1.000,9.000,5.000,0
"03/08/08","01:02:02",193289.000,"cc",28254.098,6.00,6,0.100,171518.000,0.200,20876.000,0.300,829.000,0.500,59.000,1.000,7.000,5.000,0
"03/08/08","01:02:08",198122.000,"cc",28319.988,6.00,6,0.100,175137.000,0.200,22029.000,0.300,872.000,0.500,75.000,1.000,9.000,5.000,0
"03/08/08","01:02:14",169189.000,"cc",28353.106,6.00,6,0.100,149639.000,0.200,18691.000,0.300,795.000,0.500,58.000,1.000,6.000,5.000,0
"03/08/08","01:02:20",233108.000,"cc",28307.578,6.00,6,0.100,204158.000,0.200,27721.000,0.300,1151.000,0.500,73.000,1.000,5.000,5.000,0
"03/08/08","01:02:26",128408.000,"cc",28320.154,6.00,6,0.100,114389.000,0.200,13437.000,0.300,536.000,0.500,42.000,1.000,4.000,5.000,0
"03/08/08","01:02:32",135381.000,"cc",28322.840,6.00,6,0.100,120242.000,0.200,14496.000,0.300,596.000,0.500,43.000,1.000,4.000,5.000,0
"03/08/08","01:02:38",140389.000,"cc",28304.498,6.00,6,0.100,124958.000,0.200,14823.000,0.300,560.000,0.500,44.000,1.000,4.000,5.000,0
"03/08/08","01:02:44",135825.000,"cc",28325.543,6.00,6,0.100,120983.000,0.200,14189.000,0.300,575.000,0.500,68.000,1.000,10.000,5.000,0
"03/08/08","01:02:50",101821.000,"cc",28330.643,6.00,6,0.100,90854.000,0.200,10467.000,0.300,441.000,0.500,45.000,1.000,14.000,5.000,0
"03/08/08","01:02:56",103856.000,"cc",28273.047,6.00,6,0.100,92532.000,0.200,10835.000,0.300,429.000,0.500,57.000,1.000,3.000,5.000,0
"03/08/08","01:03:02",150615.000,"cc",28332.426,6.00,6,0.100,134260.000,0.200,15705.000,0.300,604.000,0.500,41.000,1.000,5.000,5.000,0
"03/08/08","01:03:08",168607.000,"cc",28344.408,6.00,6,0.100,150535.000,0.200,17207.000,0.300,740.000,0.500,116.000,1.000,9.000,5.000,0
"03/08/08","01:03:14",119455.000,"cc",28323.043,6.00,6,0.100,107244.000,0.200,11622.000,0.300,513.000,0.500,70.000,1.000,6.000,5.000,0
"03/08/08","01:03:20",115091.000,"cc",28252.576,6.00,6,0.100,103278.000,0.200,11249.000,0.300,495.000,0.500,66.000,1.000,3.000,5.000,0
"03/08/08","01:03:26",115987.000,"cc",28353.729,6.00,6,0.100,104226.000,0.200,11197.000,0.300,504.000,0.500,55.000,1.000,5.000,5.000,0
"03/08/08","01:03:32",101726.000,"cc",28364.647,6.00,6,0.100,91475.000,0.200,9771.000,0.300,417.000,0.500,62.000,1.000,1.000,5.000,0
"03/08/08","01:03:38",92482.000,"cc",28334.188,6.00,6,0.100,83143.000,0.200,8855.000,0.300,414.000,0.500,66.000,1.000,4.000,5.000,0
"03/08/08","01:03:44",97656.000,"cc",28296.660,6.00,6,0.100,87795.000,0.200,9388.000,0.300,414.000,0.500,53.000,1.000,6.000,5.000,0
"03/08/08","01:03:50",143334.000,"cc",28343.486,6.00,6,0.100,128495.000,0.200,14184.000,0.300,609.000,0.500,43.000,1.000,3.000,5.000,0
"03/08/08","01:03:56",103875.000,"cc",28328.139,6.00,6,0.100,93369.000,0.200,10046.000,0.300,402.000,0.500,51.000,1.000,7.000,5.000,0
"03/08/08","01:04:02",122961.000,"cc",28257.934,6.00,6,0.100,110283.000,0.200,12156.000,0.300,461.000,0.500,58.000,1.000,3.000,5.000,0
"03/08/08","01:04:08",160632.000,"cc",28330.289,6.00,6,0.100,143649.000,0.200,16307.000,0.300,613.000,0.500,59.000,1.000,4.000,5.000,0
"03/08/08","01:04:14",78918.000,"cc",28293.553,6.00,6,0.100,70941.000,0.200,7623.000,0.300,314.000,0.500,39.000,1.000,1.000,5.000,0
"03/08/08","01:04:20",82459.000,"cc",28309.076,6.00,6,0.100,74174.000,0.200,7955.000,0.300,299.000,0.500,30.000,1.000,1.000,5.000,0
"03/08/08","01:04:26",133566.000,"cc",28275.162,6.00,6,0.100,120193.000,0.200,12801.000,0.300,519.000,0.500,49.000,1.000,4.000,5.000,0
"03/08/08","01:04:32",108563.000,"cc",28307.527,6.00,6,0.100,97885.000,0.200,10211.000,0.300,410.000,0.500,54.000,1.000,3.000,5.000,0
"03/08/08","01:04:38",46326.000,"cc",28272.611,6.00,6,0.100,41521.000,0.200,4508.000,0.300,245.000,0.500,50.000,1.000,2.000,5.000,0
"03/08/08","01:04:44",32929.000,"cc",28378.607,6.00,6,0.100,29191.000,0.200,3444.000,0.300,241.000,0.500,47.000,1.000,6.000,5.000,0
"03/08/08","01:04:50",40689.000,"cc",28387.525,6.00,6,0.100,36204.000,0.200,4176.000,0.300,242.000,0.500,62.000,1.000,5.000,5.000,0
"03/08/08","01:04:56",31845.000,"cc",28341.373,6.00,6,0.100,28215.000,0.200,3367.000,0.300,210.000,0.500,50.000,1.000,3.000,5.000,0
"03/08/08","01:05:02",28970.000,"cc",28266.387,6.00,6,0.100,25859.000,0.200,2935.000,0.300,146.000,0.500,27.000,1.000,3.000,5.000,0
"03/08/08","01:05:08",41285.000,"cc",28368.783,6.00,6,0.100,37045.000,0.200,4044.000,0.300,175.000,0.500,21.000,1.000,0,5.000,0
"03/08/08","01:05:14",53530.000,"cc",28241.328,6.00,6,0.100,48066.000,0.200,5196.000,0.300,233.000,0.500,34.000,1.000,1.000,5.000,0
"03/08/08","01:05:20",42606.000,"cc",28438.691,6.00,6,0.100,38252.000,0.200,4127.000,0.300,206.000,0.500,19.000,1.000,2.000,5.000,0
"03/08/08","01:05:26",37850.000,"cc",28195.455,6.00,6,0.100,33887.000,0.200,3749.000,0.300,183.000,0.500,30.000,1.000,1.000,5.000,0
"03/08/08","01:05:32",38732.000,"cc",28290.477,6.00,6,0.100,34641.000,0.200,3883.000,0.300,177.000,0.500,27.000,1.000,4.000,5.000,0
"03/08/08","01:05:38",35441.000,"cc",28250.502,6.00,6,0.100,31485.000,0.200,3677.000,0.300,227.000,0.500,48.000,1.000,4.000,5.000,0
"03/08/08","01:05:44",22987.000,"cc",28352.328,6.00,6,0.100,20190.000,0.200,2600.000,0.300,163.000,0.500,33.000,1.000,1.000,5.000,0
"03/08/08","01:05:50",37355.000,"cc",28390.443,6.00,6,0.100,33309.000,0.200,3831.000,0.300,189.000,0.500,26.000,1.000,0,5.000,0
"03/08/08","01:05:56",38130.000,"cc",28277.027,6.00,6,0.100,34066.000,0.200,3833.000,0.300,195.000,0.500,33.000,1.000,3.000,5.000,0
"03/08/08","01:06:02",21976.000,"cc",28398.666,6.00,6,0.100,19400.000,0.200,2397.000,0.300,155.000,0.500,23.000,1.000,1.000,5.000,0
"03/08/08","01:06:08",36404.000,"cc",28248.434,6.00,6,0.100,32431.000,0.200,3727.000,0.300,199.000,0.500,44.000,1.000,3.000,5.000,0
"03/08/08","01:06:14",19218.000,"cc",28371.559,6.00,6,0.100,16746.000,0.200,2283.000,0.300,150.000,0.500,37.000,1.000,2.000,5.000,0
"03/08/08","01:06:20",34282.000,"cc",28338.418,6.00,6,0.100,30479.000,0.200,3574.000,0.300,195.000,0.500,34.000,1.000,0,5.000,0
"03/08/08","01:06:26",49552.000,"cc",28280.361,6.00,6,0.100,44286.000,0.200,4931.000,0.300,262.000,0.500,69.000,1.000,4.000,5.000,0
"03/08/08","01:06:32",31082.000,"cc",28316.273,6.00,6,0.100,27574.000,0.200,3259.000,0.300,197.000,0.500,47.000,1.000,5.000,5.000,0
"03/08/08","01:06:38",31867.000,"cc",28328.744,6.00,6,0.100,28423.000,0.200,3251.000,0.300,157.000,0.500,35.000,1.000,1.000,5.000,0
"03/08/08","01:06:44",54390.000,"cc",28271.190,6.00,6,0.100,48882.000,0.200,5234.000,0.300,227.000,0.500,43.000,1.000,4.000,5.000,0
"03/08/08","01:06:50",47185.000,"cc",28335.795,6.00,6,0.100,42215.000,0.200,4673.000,0.300,257.000,0.500,38.000,1.000,2.000,5.000,0
"03/08/08","01:06:56",80629.000,"cc",28311.918,6.00,6,0.100,72587.000,0.200,7629.000,0.300,335.000,0.500,69.000,1.000,9.000,5.000,0
"03/08/08","01:07:02",28385.000,"cc",28297.168,6.00,6,0.100,25075.000,0.200,3057.000,0.300,205.000,0.500,42.000,1.000,6.000,5.000,0
"03/08/08","01:07:08",26176.000,"cc",28300.025,6.00,6,0.100,23096.000,0.200,2838.000,0.300,195.000,0.500,46.000,1.000,1.000,5.000,0
"03/08/08","01:07:14",36170.000,"cc",28354.893,6.00,6,0.100,32234.000,0.200,3699.000,0.300,202.000,0.500,29.000,1.000,6.000,5.000,0
"03/08/08","01:07:20",62294.000,"cc",28338.715,6.00,6,0.100,56056.000,0.200,5944.000,0.300,246.000,0.500,47.000,1.000,1.000,5.000,0
"03/08/08","01:07:26",60142.000,"cc",28268.162,6.00,6,0.100,54059.000,0.200,5754.000,0.300,287.000,0.500,39.000,1.000,3.000,5.000,0
"03/08/08","01:07:32",56175.000,"cc",28308.590,6.00,6,0.100,50365.000,0.200,5518.000,0.300,253.000,0.500,35.000,1.000,4.000,5.000,0
"03/08/08","01:07:38",67069.000,"cc",28289.408,6.00,6,0.100,60235.000,0.200,6479.000,0.300,294.000,0.500,55.000,1.000,6.000,5.000,0
"03/08/08","01:07:44",44108.000,"cc",28314.217,6.00,6,0.100,39496.000,0.200,4363.000,0.300,207.000,0.500,34.000,1.000,8.000,5.000,0
"03/08/08","01:07:50",147812.000,"cc",28357.994,6.00,6,0.100,132702.000,0.200,14445.000,0.300,592.000,0.500,63.000,1.000,10.000,5.000,0
"03/08/08","01:07:56",59280.000,"cc",28363.887,6.00,6,0.100,53146.000,0.200,5810.000,0.300,267.000,0.500,50.000,1.000,7.000,5.000,0
"03/08/08","01:08:02",50435.000,"cc",28316.436,6.00,6,0.100,45025.000,0.200,5115.000,0.300,254.000,0.500,39.000,1.000,2.000,5.000,0
"03/08/08","01:08:08",44850.000,"cc",28397.387,6.00,6,0.100,39949.000,0.200,4620.000,0.300,234.000,0.500,41.000,1.000,6.000,5.000,0
"03/08/08","01:08:14",47518.000,"cc",28216.664,6.00,6,0.100,42574.000,0.200,4696.000,0.300,212.000,0.500,36.000,1.000,0,5.000,0
"03/08/08","01:08:20",41976.000,"cc",28347.670,6.00,6,0.100,37368.000,0.200,4351.000,0.300,212.000,0.500,43.000,1.000,2.000,5.000,0
"03/08/08","01:08:26",41974.000,"cc",28310.531,6.00,6,0.100,37577.000,0.200,4199.000,0.300,169.000,0.500,28.000,1.000,1.000,5.000,0
"03/08/08","01:08:32",22440.000,"cc",28330.912,6.00,6,0.100,19724.000,0.200,2558.000,0.300,138.000,0.500,18.000,1.000,2.000,5.000,0
"03/08/08","01:08:38",13306.000,"cc",28354.861,6.00,6,0.100,11508.000,0.200,1675.000,0.300,103.000,0.500,17.000,1.000,3.000,5.000,0
"03/08/08","01:08:44",15186.000,"cc",28295.918,6.00,6,0.100,13183.000,0.200,1862.000,0.300,112.000,0.500,28.000,1.000,1.000,5.000,0
"03/08/08","01:08:50",11643.000,"cc",28297.240,6.00,6,0.100,10066.000,0.200,1479.000,0.300,89.000,0.500,8.000,1.000,1.000,5.000,0
"03/08/08","01:08:56",11084.000,"cc",28331.875,6.00,6,0.100,9517.000,0.200,1450.000,0.300,103.000,0.500,14.000,1.000,0,5.000,0
"03/08/08","01:09:02",11807.000,"cc",28247.174,6.00,6,0.100,10052.000,0.200,1636.000,0.300,104.000,0.500,14.000,1.000,1.000,5.000,0
"03/08/08","01:09:08",11425.000,"cc",28300.701,6.00,6,0.100,9710.000,0.200,1586.000,0.300,107.000,0.500,21.000,1.000,1.000,5.000,0
"03/08/08","01:09:14",11634.000,"cc",28386.781,6.00,6,0.100,9914.000,0.200,1563.000,0.300,128.000,0.500,28.000,1.000,1.000,5.000,0
"03/08/08","01:09:20",11727.000,"cc",28309.600,6.00,6,0.100,10038.000,0.200,1546.000,0.300,119.000,0.500,24.000,1.000,0,5.000,0
"03/08/08","01:09:26",11591.000,"cc",28380.816,6.00,6,0.100,9886.000,0.200,1587.000,0.300,101.000,0.500,17.000,1.000,0,5.000,0
"03/08/08","01:09:32",11413.000,"cc",28235.248,6.00,6,0.100,9713.000,0.200,1580.000,0.300,112.000,0.500,8.000,1.000,0,5.000,0
"03/08/08","01:09:38",11523.000,"cc",28252.760,6.00,6,0.100,9805.000,0.200,1605.000,0.300,107.000,0.500,6.000,1.000,0,5.000,0
"03/08/08","01:09:44",11935.000,"cc",28340.613,6.00,6,0.100,10084.000,0.200,1688.000,0.300,132.000,0.500,31.000,1.000,0,5.000,0
"03/08/08","01:09:50",11469.000,"cc",28434.264,6.00,6,0.100,9708.000,0.200,1628.000,0.300,117.000,0.500,14.000,1.000,2.000,5.000,0
"03/08/08","01:09:56",11657.000,"cc",28334.090,6.00,6,0.100,9934.000,0.200,1598.000,0.300,104.000,0.500,21.000,1.000,0,5.000,0
"03/08/08","01:10:02",11606.000,"cc",28335.984,6.00,6,0.100,9870.000,0.200,1589.000,0.300,126.000,0.500,21.000,1.000,0,5.000,0
"03/08/08","01:10:08",11718.000,"cc",28364.297,6.00,6,0.100,9975.000,0.200,1590.000,0.300,123.000,0.500,26.000,1.000,4.000,5.000,0
"03/08/08","01:10:14",10846.000,"cc",28358.932,6.00,6,0.100,9186.000,0.200,1553.000,0.300,92.000,0.500,15.000,1.000,0,5.000,0
"03/08/08","01:10:20",10365.000,"cc",28310.629,6.00,6,0.100,8775.000,0.200,1492.000,0.300,86.000,0.500,10.000,1.000,2.000,5.000,0
"03/08/08","01:10:26",11078.000,"cc",28269.438,6.00,6,0.100,9401.000,0.200,1556.000,0.300,100.000,0.500,19.000,1.000,2.000,5.000,0
"03/08/08","01:10:32",11308.000,"cc",28300.953,6.00,6,0.100,9526.000,0.200,1647.000,0.300,115.000,0.500,18.000,1.000,2.000,5.000,0
"03/08/08","01:10:38",11043.000,"cc",28322.225,6.00,6,0.100,9260.000,0.200,1669.000,0.300,101.000,0.500,13.000,1.000,0,5.000,0
"03/08/08","01:10:44",10572.000,"cc",28368.891,6.00,6,0.100,8918.000,0.200,1535.000,0.300,99.000,0.500,17.000,1.000,3.000,5.000,0
"03/08/08","01:10:50",10420.000,"cc",28386.967,6.00,6,0.100,8786.000,0.200,1520.000,0.300,103.000,0.500,11.000,1.000,0,5.000,0
"03/08/08","01:10:56",10487.000,"cc",28294.955,6.00,6,0.100,8903.000,0.200,1497.000,0.300,79.000,0.500,8.000,1.000,0,5.000,0
"03/08/08","01:11:02",10581.000,"cc",28267.373,6.00,6,0.100,8918.000,0.200,1570.000,0.300,83.000,0.500,10.000,1.000,0,5.000,0
"03/08/08","01:11:08",10818.000,"cc",28289.981,6.00,6,0.100,9084.000,0.200,1619.000,0.300,100.000,0.500,14.000,1.000,1.000,5.000,0
"03/08/08","01:11:14",10770.000,"cc",28267.732,6.00,6,0.100,8950.000,0.200,1709.000,0.300,98.000,0.500,12.000,1.000,1.000,5.000,0
"03/08/08","01:11:20",10911.000,"cc",28339.512,6.00,6,0.100,9096.000,0.200,1667.000,0.300,133.000,0.500,14.000,1.000,1.000,5.000,0
"03/08/08","01:11:26",10983.000,"cc",28372.494,6.00,6,0.100,9144.000,0.200,1727.000,0.300,96.000,0.500,15.000,1.000,1.000,5.000,0
"03/08/08","01:11:32",10539.000,"cc",28398.539,6.00,6,0.100,8800.000,0.200,1620.000,0.300,103.000,0.500,14.000,1.000,2.000,5.000,0
"03/08/08","01:11:38",10238.000,"cc",28287.811,6.00,6,0.100,8606.000,0.200,1507.000,0.300,104.000,0.500,19.000,1.000,2.000,5.000,0
"03/08/08","01:11:44",10584.000,"cc",28288.623,6.00,6,0.100,8812.000,0.200,1623.000,0.300,124.000,0.500,24.000,1.000,1.000,5.000,0
"03/08/08","01:11:50",10741.000,"cc",28324.217,6.00,6,0.100,8912.000,0.200,1667.000,0.300,138.000,0.500,23.000,1.000,1.000,5.000,0
"03/08/08","01:11:56",10723.000,"cc",28359.818,6.00,6,0.100,8914.000,0.200,1667.000,0.300,125.000,0.500,17.000,1.000,0,5.000,0
"03/08/08","01:12:02",10404.000,"cc",28296.023,6.00,6,0.100,8605.000,0.200,1647.000,0.300,132.000,0.500,19.000,1.000,1.000,5.000,0
"03/08/08","01:12:08",10381.000,"cc",28358.975,6.00,6,0.100,8632.000,0.200,1621.000,0.300,107.000,0.500,20.000,1.000,1.000,5.000,0
"03/08/08","01:12:14",9883.000,"cc",28326.801,6.00,6,0.100,8190.000,0.200,1564.000,0.300,112.000,0.500,16.000,1.000,1.000,5.000,0
"03/08/08","01:12:20",9886.000,"cc",28320.652,6.00,6,0.100,8231.000,0.200,1558.000,0.300,85.000,0.500,11.000,1.000,1.000,5.000,0
"03/08/08","01:12:26",10226.000,"cc",28261.258,6.00,6,0.100,8575.000,0.200,1531.000,0.300,103.000,0.500,16.000,1.000,1.000,5.000,0
"03/08/08","01:12:32",10634.000,"cc",28305.941,6.00,6,0.100,8821.000,0.200,1678.000,0.300,123.000,0.500,12.000,1.000,0,5.000,0
"03/08/08","01:12:38",10772.000,"cc",28291.746,6.00,6,0.100,8819.000,0.200,1732.000,0.300,184.000,0.500,34.000,1.000,3.000,5.000,0
"03/08/08","01:12:44",10349.000,"cc",28312.465,6.00,6,0.100,8643.000,0.200,1598.000,0.300,91.000,0.500,14.000,1.000,3.000,5.000,0
"03/08/08","01:12:50",10499.000,"cc",28346.000,6.00,6,0.100,8673.000,0.200,1662.000,0.300,142.000,0.500,22.000,1.000,0,5.000,0
"03/08/08","01:12:56",10548.000,"cc",28304.041,6.00,6,0.100,8784.000,0.200,1651.000,0.300,93.000,0.500,17.000,1.000,3.000,5.000,0
"03/08/08","01:13:02",10718.000,"cc",28372.402,6.00,6,0.100,8829.000,0.200,1703.000,0.300,148.000,0.500,35.000,1.000,3.000,5.000,0
"03/08/08","01:13:08",10218.000,"cc",28348.785,6.00,6,0.100,8538.000,0.200,1548.000,0.300,113.000,0.500,19.000,1.000,0,5.000,0
"03/08/08","01:13:14",10748.000,"cc",28232.576,6.00,6,0.100,8860.000,0.200,1689.000,0.300,159.000,0.500,39.000,1.000,1.000,5.000,0
"03/08/08","01:13:20",10462.000,"cc",28352.779,6.00,6,0.100,8643.000,0.200,1676.000,0.300,111.000,0.500,32.000,1.000,0,5.000,0
"03/08/08","01:13:26",10022.000,"cc",28316.557,6.00,6,0.100,8331.000,0.200,1561.000,0.300,113.000,0.500,15.000,1.000,2.000,5.000,0
"03/08/08","01:13:32",9868.000,"cc",28342.715,6.00,6,0.100,8138.000,0.200,1618.000,0.300,99.000,0.500,13.000,1.000,0,5.000,0
"03/08/08","01:13:38",9538.000,"cc",28367.065,6.00,6,0.100,7961.000,0.200,1468.000,0.300,88.000,0.500,19.000,1.000,2.000,5.000,0
"03/08/08","01:13:44",9233.000,"cc",28342.084,6.00,6,0.100,7754.000,0.200,1396.000,0.300,75.000,0.500,8.000,1.000,0,5.000,0
"03/08/08","01:13:50",8942.000,"cc",28264.428,6.00,6,0.100,7468.000,0.200,1374.000,0.300,83.000,0.500,16.000,1.000,1.000,5.000,0
"03/08/08","01:13:56",8897.000,"cc",28344.852,6.00,6,0.100,7496.000,0.200,1313.000,0.300,78.000,0.500,10.000,1.000,0,5.000,0
"03/08/08","01:14:02",9528.000,"cc",28324.137,6.00,6,0.100,7976.000,0.200,1434.000,0.300,109.000,0.500,9.000,1.000,0,5.000,0
"03/08/08","01:14:08",9296.000,"cc",28374.414,6.00,6,0.100,7794.000,0.200,1416.000,0.300,76.000,0.500,10.000,1.000,0,5.000,0
"03/08/08","01:14:14",9647.000,"cc",28342.354,6.00,6,0.100,7959.000,0.200,1564.000,0.300,99.000,0.500,24.000,1.000,1.000,5.000,0
"03/08/08","01:14:20",9302.000,"cc",28293.287,6.00,6,0.100,7742.000,0.200,1467.000,0.300,81.000,0.500,12.000,1.000,0,5.000,0
"03/08/08","01:14:26",9414.000,"cc",28267.670,6.00,6,0.100,7837.000,0.200,1447.000,0.300,104.000,0.500,24.000,1.000,2.000,5.000,0
"03/08/08","01:14:32",8919.000,"cc",28385.518,6.00,6,0.100,7397.000,0.200,1426.000,0.300,81.000,0.500,15.000,1.000,0,5.000,0
"03/08/08","01:14:38",8645.000,"cc",28348.768,6.00,6,0.100,7250.000,0.200,1312.000,0.300,72.000,0.500,10.000,1.000,1.000,5.000,0
"03/08/08","01:14:44",8527.000,"cc",28353.934,6.00,6,0.100,7058.000,0.200,1373.000,0.300,82.000,0.500,14.000,1.000,0,5.000,0
"03/08/08","01:14:50",8326.000,"cc",28294.361,6.00,6,0.100,7034.000,0.200,1248.000,0.300,40.000,0.500,4.000,1.000,0,5.000,0
"03/08/08","01:14:56",8304.000,"cc",28350.328,6.00,6,0.100,7063.000,0.200,1186.000,0.300,50.000,0.500,5.000,1.000,0,5.000,0
"03/08/08","01:15:02",8971.000,"cc",28202.940,6.00,6,0.100,7608.000,0.200,1303.000,0.300,52.000,0.500,7.000,1.000,1.000,5.000,0
"03/08/08","01:15:08",8628.000,"cc",28260.418,6.00,6,0.100,7239.000,0.200,1312.000,0.300,68.000,0.500,9.000,1.000,0,5.000,0
"03/08/08","01:15:14",8905.000,"cc",28336.395,6.00,6,0.100,7475.000,0.200,1367.000,0.300,61.000,0.500,1.000,1.000,1.000,5.000,0
"03/08/08","01:15:20",9014.000,"cc",28318.309,6.00,6,0.100,7527.000,0.200,1419.000,0.300,63.000,0.500,5.000,1.000,0,5.000,0
"03/08/08","01:15:26",8533.000,"cc",28343.678,6.00,6,0.100,7161.000,0.200,1309.000,0.300,56.000,0.500,7.000,1.000,0,5.000,0
"03/08/08","01:15:32",8729.000,"cc",28264.332,6.00,6,0.100,7363.000,0.200,1307.000,0.300,52.000,0.500,7.000,1.000,0,5.000,0
"03/08/08","01:15:38",9191.000,"cc",28258.984,6.00,6,0.100,7702.000,0.200,1424.000,0.300,56.000,0.500,9.000,1.000,0,5.000,0
"03/08/08","01:15:44",9646.000,"cc",28249.912,6.00,6,0.100,7968.000,0.200,1586.000,0.300,83.000,0.500,7.000,1.000,2.000,5.000,0
"03/08/08","01:15:50",9269.000,"cc",28377.203,6.00,6,0.100,7673.000,0.200,1507.000,0.300,82.000,0.500,7.000,1.000,0,5.000,0
"03/08/08","01:15:56",9259.000,"cc",28312.061,6.00,6,0.100,7728.000,0.200,1460.000,0.300,64.000,0.500,7.000,1.000,0,5.000,0
"03/08/08","01:16:02",9336.000,"cc",28241.553,6.00,6,0.100,7818.000,0.200,1439.000,0.300,68.000,0.500,11.000,1.000,0,5.000,0
"03/08/08","01:16:08",9028.000,"cc",28323.979,6.00,6,0.100,7412.000,0.200,1526.000,0.300,84.000,0.500,6.000,1.000,0,5.000,0
"03/08/08","01:16:14",9263.000,"cc",28396.465,6.00,6,0.100,7649.000,0.200,1523.000,0.300,83.000,0.500,8.000,1.000,0,5.000,0
"03/08/08","01:16:20",9258.000,"cc",28329.139,6.00,6,0.100,7607.000,0.200,1552.000,0.300,89.000,0.500,9.000,1.000,1.000,5.000,0
"03/08/08","01:16:26",9253.000,"cc",28267.533,6.00,6,0.100,7746.000,0.200,1437.000,0.300,61.000,0.500,7.000,1.000,2.000,5.000,0
"03/08/08","01:16:32",9622.000,"cc",28293.826,6.00,6,0.100,7864.000,0.200,1655.000,0.300,94.000,0.500,9.000,1.000,0,5.000,0
"03/08/08","01:16:38",9162.000,"cc",28373.102,6.00,6,0.100,7583.000,0.200,1497.000,0.300,72.000,0.500,8.000,1.000,2.000,5.000,0
"03/08/08","01:16:44",9161.000,"cc",28239.676,6.00,6,0.100,7697.000,0.200,1400.000,0.300,59.000,0.500,5.000,1.000,0,5.000,0
"03/08/08","01:16:50",8899.000,"cc",28266.051,6.00,6,0.100,7416.000,0.200,1432.000,0.300,49.000,0.500,2.000,1.000,0,5.000,0
"03/08/08","01:16:56",8978.000,"cc",28309.018,6.00,6,0.100,7549.000,0.200,1390.000,0.300,36.000,0.500,3.000,1.000,0,5.000,0
"03/08/08","01:17:02",9252.000,"cc",28282.117,6.00,6,0.100,7785.000,0.200,1400.000,0.300,62.000,0.500,4.000,1.000,1.000,5.000,0
"03/08/08","01:17:08",9053.000,"cc",28318.563,6.00,6,0.100,7630.000,0.200,1364.000,0.300,53.000,0.500,6.000,1.000,0,5.000,0